Location: Dompnac
(44.5644°N, 4.1026°E)
Time: 17:21:39
(UTC+00:00)

Cosmos 1634 Rocket - Pass Details

Date: 25 January 2021
Orbit: 961 x 991 km, 82.9° (Epoch: 05 March)

Event Time Altitude Azimuth Distance (km) Brightness Sun altitude
Rises 18:32:40 0° 332° (NNW) 3,685 7.3 -19.5°
Reaches altitude 10° 18:37:24 10° 299° (WNW) 2,739 7.1 -20.3°
Maximum altitude 18:39:03 11° 284° (WNW) 2,657 7.3 -20.6°
Drops below altitude 10° 18:40:43 10° 268° (W) 2,739 7.5 -20.9°
Sets 18:45:28 0° 236° (SW) 3,687 8.0 -21.7°
